Flag for U.S.A. Weather past 2 weeks in Garland, Texas, U.S.A.

Now
91 °F

Sunny.


Feels Like: 97 °F
Forecast: 77 / 97 °F
Wind: 12 mph from South

Location: Mesquite Metro Airport

Current Time: Jul 26, 2014 at 12:56:18 PM

Latest Report: Jul 26, 2014 at 11:47 AM


Visibility: 10 mi

Pressure: 30.01 "Hg

Humidity: 49%

Dew point: 70 °F

Location of GarlandLocation

Historic Weather in Garland — Graph

°F

Garland temperature yesterday

Maximum temperature yesterday: 97 °F (at 3:50 PM)
Minimum temperature yesterday: 70 °F (at 6:55 AM)
Average temperature yesterday: 80 °F

Past Weeks' High & Low Weather Summary

 TemperatureHumidityPressure
High99 °F (Jul 13, 2:55 PM)100% (Jul 12, 5:47 AM)30.23 "Hg (Jul 12, 5:47 AM)
Low63 °F (Jul 20, 6:50 AM)24% (Jul 15, 4:50 PM)29.88 "Hg (Jul 16, 7:50 PM)
Average77 °F74%30.02 "Hg
* Reported Jul 11 10:47 AM — Jul 26 10:55 AM, Garland, Weather by CustomWeather, © 2014

Note: Actual official high and low records may vary slightly from our data, if they occured in-between our weather recording intervals... More about our weather records

Advertising

Garland weather history for previous 24 hours

 ConditionsComfort  
Time TempWeatherWind HumidityBarometerVisibility
10:55 AM
Jul 26
90 °FSunny.10 mph52%30.02 "Hg10 mi
9:50 AM84 °FSunny.10 mph66%30.02 "Hg10 mi
8:55 AM81 °FSunny.10 mph74%30.02 "Hg10 mi
7:55 AM75 °FSunny.5 mph89%30.01 "Hg10 mi
6:50 AM72 °FClear.3 mph94%30.00 "Hg7 mi
5:35 AM72 °FClear.No wind93%29.98 "Hg10 mi
5:15 AM73 °FClear.3 mph92%29.97 "Hg10 mi
4:55 AM73 °FClear.5 mph90%29.96 "Hg10 mi
4:35 AM74 °FClear.5 mph89%29.96 "Hg10 mi
4:15 AM75 °FClear.6 mph87%29.96 "Hg10 mi
3:55 AM76 °FClear.7 mph85%29.96 "Hg10 mi
3:35 AM76 °FClear.7 mph85%29.96 "Hg10 mi
3:15 AM76 °FClear.6 mph86%29.96 "Hg10 mi
2:55 AM76 °FClear.6 mph86%29.96 "Hg10 mi
2:35 AM76 °FClear.6 mph86%29.96 "Hg10 mi
2:15 AM77 °FClear.6 mph84%29.96 "Hg10 mi
1:55 AM77 °FClear.8 mph84%29.96 "Hg10 mi
1:35 AM77 °FClear.6 mph83%29.97 "Hg10 mi
1:15 AM78 °FClear.5 mph81%29.97 "Hg10 mi
12:55 AM79 °FClear.7 mph78%29.98 "Hg10 mi
12:35 AM80 °FClear.8 mph75%29.98 "Hg10 mi
12:15 AM81 °FClear.8 mph73%29.98 "Hg10 mi
11:55 PM
Jul 25
81 °FClear.8 mph72%29.97 "Hg10 mi
11:35 PM82 °FClear.8 mph70%29.97 "Hg10 mi
11:15 PM82 °FClear.7 mph69%29.96 "Hg10 mi
10:55 PM83 °FClear.6 mph67%29.96 "Hg10 mi
10:35 PM83 °FClear.8 mph65%29.96 "Hg10 mi
9:55 PM85 °FClear.8 mph61%29.95 "Hg10 mi
7:50 PM91 °FSunny.9 mph49%29.92 "Hg10 mi
6:50 PM95 °FSunny.8 mph39%29.91 "Hg10 mi
5:50 PM97 °FPassing clouds.9 mph34%29.91 "Hg10 mi
4:50 PM97 °FSunny.8 mph32%29.93 "Hg10 mi
3:50 PM97 °FScattered clouds.10 mph34%29.95 "Hg10 mi
2:50 PM95 °FSunny.5 mph39%29.96 "Hg10 mi
1:50 PM93 °FSunny.8 mph41%29.98 "Hg10 mi
12:53 PM93 °FSunny.9 mph41%30.00 "Hg10 mi
Weather by CustomWeather, © 2014

See weather overviewHow to use our weather pages